Flag for China Weather past 2 weeks in Nanning, Guangxi, China

Now
77 °F

Sprinkles. Fog.


Feels Like: 78 °F
Forecast: 75 / 82 °F
Wind: 8 mph from Northeast

Location: Nanning Airport

Current Time: Sep 2, 2015 at 2:25:25 AM

Latest Report: Sep 2, 2015 at 2:00 AM


Visibility: 2 mi

Pressure: 29.74 "Hg

Humidity: 94%

Dew point: 75 °F

Location of NanningLocation

Historic Weather in Nanning — Graph

°F

Nanning temperature yesterday

Maximum temperature yesterday: 81 °F (at 5:00 PM)
Minimum temperature yesterday: 75 °F (at 3:00 AM)
Average temperature yesterday: 78 °F

Past Weeks' High & Low Weather Summary

 TemperatureHumidityPressure
High97 °F (Aug 24, 4:00 PM)100% (Aug 29, 4:00 PM)29.83 "Hg (Aug 29, 4:00 PM)
Low73 °F (Aug 30, 5:00 AM)32% (Aug 23, 6:00 PM)29.56 "Hg (Aug 22, 3:00 PM)
Average83 °F77%29.70 "Hg
* Reported Aug 18 1:00 AM — Sep 2 1:00 AM, Nanning, Weather by CustomWeather, © 2015

Note: Actual official high and low records may vary slightly from our data, if they occured in-between our weather recording intervals... More about our weather records

Advertising

Nanning weather history for previous 24 hours

 ConditionsComfort  
Time TempWeatherWind HumidityBarometerVisibility
1:00 AM
Wed, Sep 2
77 °FSprinkles. Fog.8 mph94%29.74 "Hg2 mi
12:00 AM77 °FPartly cloudy.10 mph94%29.74 "HgN/A
11:00 PM
Tue, Sep 1
79 °FPartly cloudy.3 mph89%29.74 "HgN/A
10:00 PM79 °FPassing clouds.3 mph89%29.74 "HgN/A
9:00 PM79 °FPassing clouds.3 mph89%29.71 "HgN/A
8:00 PM79 °FPassing clouds.3 mph94%29.68 "Hg4 mi
7:00 PM81 °FScattered clouds.6 mph84%29.68 "HgN/A
6:00 PM81 °FScattered clouds.3 mph84%29.65 "HgN/A
5:00 PM81 °FScattered clouds.3 mph89%29.65 "HgN/A
4:00 PM79 °FLight rain. Overcast.8 mph94%29.68 "Hg5 mi
3:00 PM79 °FLight rain. More clouds than sun.6 mph89%29.68 "Hg4 mi
2:00 PM77 °FLight rain. More clouds than sun.10 mph94%29.68 "Hg5 mi
1:00 PM77 °FLight rain. Fog.8 mph94%29.71 "Hg2 mi
12:00 PM77 °FLight rain. More clouds than sun.8 mph94%29.71 "Hg4 mi
11:00 AM77 °FLight rain. Broken clouds.8 mph94%29.71 "Hg4 mi
10:00 AM75 °FSprinkles. Fog.8 mph100%29.71 "Hg2 mi
9:00 AM77 °FSprinkles. Fog.6 mph94%29.71 "Hg2 mi
8:00 AM77 °FScattered clouds.6 mph89%29.68 "Hg4 mi
7:00 AM77 °FScattered clouds.1 mph89%29.68 "Hg4 mi
6:00 AM77 °FOvercast.3 mph89%29.68 "Hg5 mi
5:00 AM75 °FMostly cloudy.6 mph94%29.68 "Hg4 mi
4:00 AM75 °FLight rain. Passing clouds.6 mph94%29.68 "Hg5 mi
3:00 AM75 °FLight rain. Passing clouds.3 mph94%29.71 "Hg4 mi
2:00 AM77 °FMostly cloudy.3 mph89%29.71 "HgN/A
Weather by CustomWeather, © 2015

See weather overviewHow to use our weather pages